JY1SAT (JO-97)

Last updated on Sat Sep 05 2026 00:03:18 GMT+0000 (Coordinated Universal Time)

1 43803U 18099AX 26246.72149691 .00011876 00000+0 34094-3 0 9999 2 43803 97.4046 309.9287 0004940 7.3493 352.7822 15.35992618425673
UTC large
Height (km)
Speed (km/s)
/
Latitude / Longitude
Inclination (degrees)
Orbital Period (minutes)
Azimuth
Elevation
Range (km)
Doppler Factor

Next 0 passes for location: London (51.5072 / 0.1276)

No passes found over London.
JY1SAT (JO-97)